| time (UTC) | temp C | wind direction | speed KPH | gust KPH | rain 1hr cm | rain 24hr cm | rain mn cm | humidity % | barometer mb |
| 20260510204520 | 26 | 155 | 8.0 | 16.1 | 0.00 | 0.00 | 0.00 | 52 | 1011.0 |
| 20260510204255 | 26 | 132 | 14.5 | 14.5 | 0.00 | 0.00 | 0.00 | 53 | 1010.8 |
| 20260510202755 | 26 | 44 | 1.6 | 17.7 | 0.00 | 0.00 | 0.00 | 53 | 1010.7 |
| 20260510201255 | 26 | 188 | 1.6 | 17.7 | 0.00 | 0.00 | 0.00 | 53 | 1010.9 |
| 20260510195755 | 26 | 169 | 1.6 | 14.5 | 0.00 | 0.00 | 0.00 | 51 | 1010.9 |
| 20260510194458 | 26 | 44 | 4.8 | 9.7 | 0.00 | 0.00 | 0.00 | 52 | 1011.2 |
| 20260510194254 | 26 | 84 | 1.6 | 14.5 | 0.00 | 0.00 | 0.00 | 51 | 1011.3 |
| 20260510192754 | 26 | 102 | 1.6 | 17.7 | 0.00 | 0.00 | 0.00 | 53 | 1011.7 |
| 20260510191254 | 26 | 97 | 1.6 | 17.7 | 0.00 | 0.00 | 0.00 | 52 | 1011.8 |
| 20260510185754 | 26 | 148 | 4.8 | 17.7 | 0.00 | 0.00 | 0.00 | 54 | 1011.8 |
| 20260510184514 | 27 | 130 | 6.4 | 14.5 | 0.00 | 0.00 | 0.00 | 50 | 1011.9 |
| 20260510184253 | 27 | 315 | 6.4 | 17.7 | 0.00 | 0.00 | 0.00 | 50 | 1011.9 |
| 20260510182753 | 27 | 102 | 11.3 | 12.9 | 0.00 | 0.00 | 0.00 | 44 | 1011.9 |
| 20260510181253 | 27 | 99 | 1.6 | 12.9 | 0.00 | 0.00 | 0.00 | 46 | 1012.1 |
| 20260510175753 | 27 | 130 | 4.8 | 12.9 | 0.00 | 0.00 | 0.00 | 45 | 1012.2 |
| 20260510174507 | 27 | 280 | 3.2 | 11.3 | 0.00 | 0.00 | 0.00 | 48 | 1012.2 |
| 20260510174253 | 27 | 328 | 6.4 | 12.9 | 0.00 | 0.00 | 0.00 | 48 | 1012.2 |
| 20260510172753 | 27 | 84 | 3.2 | 16.1 | 0.00 | 0.00 | 0.00 | 48 | 1012.2 |
| 20260510171252 | 26 | 299 | 1.6 | 16.1 | 0.00 | 0.00 | 0.00 | 52 | 1012.3 |
| 20260510165752 | 27 | 151 | 0.0 | 9.7 | 0.00 | 0.00 | 0.00 | 51 | 1012.5 |
| 20260510164510 | 26 | 177 | 6.4 | 11.3 | 0.00 | 0.00 | 0.00 | 51 | 1012.6 |
| 20260510164252 | 26 | 165 | 1.6 | 9.7 | 0.00 | 0.00 | 0.00 | 51 | 1012.6 |
| 20260510162752 | 26 | 149 | 0.0 | 12.9 | 0.00 | 0.00 | 0.00 | 54 | 1012.7 |
| 20260510161252 | 26 | 298 | 6.4 | 12.9 | 0.00 | 0.00 | 0.00 | 52 | 1012.8 |
| 20260510155751 | 26 | 246 | 0.0 | 12.9 | 0.00 | 0.00 | 0.00 | 57 | 1012.8 |
| 20260510154446 | 25 | 109 | 3.2 | 12.9 | 0.00 | 0.00 | 0.00 | 57 | 1012.9 |
| 20260510154251 | 25 | 208 | 0.0 | 12.9 | 0.00 | 0.00 | 0.00 | 59 | 1012.9 |
| 20260510152751 | 25 | 138 | 0.0 | 14.5 | 0.00 | 0.00 | 0.00 | 63 | 1012.9 |
| 20260510151251 | 24 | 129 | 3.2 | 14.5 | 0.00 | 0.00 | 0.00 | 62 | 1012.9 |
| 20260510145751 | 23 | 72 | 6.4 | 11.3 | 0.00 | 0.00 | 0.00 | 62 | 1012.7 |
| 20260510144447 | 23 | 275 | 0.0 | 11.3 | 0.00 | 0.00 | 0.00 | 64 | 1012.7 |
| 20260510144251 | 23 | 249 | 0.0 | 11.3 | 0.00 | 0.00 | 0.00 | 64 | 1012.5 |
| 20260510142750 | 23 | 151 | 8.0 | 8.0 | 0.00 | 0.00 | 0.00 | 64 | 1012.4 |
| 20260510141250 | 23 | 137 | 1.6 | 8.0 | 0.00 | 0.00 | 0.00 | 65 | 1012.4 |
| 20260510135750 | 22 | 119 | 0.0 | 6.4 | 0.00 | 0.00 | 0.00 | 69 | 1012.4 |
| 20260510134511 | 21 | 178 | 0.0 | 3.2 | 0.00 | 0.00 | 0.00 | 74 | 1012.4 |
| 20260510134250 | 21 | 123 | 0.0 | 6.4 | 0.00 | 0.00 | 0.00 | 73 | 1012.4 |
| 20260510132750 | 20 | 253 | 0.0 | 9.7 | 0.00 | 0.00 | 0.00 | 76 | 1012.5 |
| 20260510131249 | 19 | 125 | 0.0 | 9.7 | 0.00 | 0.00 | 0.00 | 81 | 1012.7 |
| 20260510125749 | 18 | 189 | 0.0 | 11.3 | 0.00 | 0.00 | 0.00 | 84 | 1012.9 |
| 20260510124449 | 17 | 27 | 6.4 | 9.7 | 0.00 | 0.00 | 0.00 | 85 | 1012.9 |
| 20260510124249 | 17 | 9 | 3.2 | 11.3 | 0.00 | 0.00 | 0.00 | 86 | 1012.9 |
| 20260510122749 | 16 | 11 | 3.2 | 12.9 | 0.00 | 0.00 | 0.00 | 89 | 1012.8 |
| 20260510115749 | 15 | 311 | 6.4 | 6.4 | 0.00 | 0.00 | 0.00 | 91 | 1012.6 |
| 20260510114445 | 14 | 5 | 3.2 | 8.0 | 0.00 | 0.00 | 0.00 | 92 | 1012.4 |
| 20260510114248 | 14 | 337 | 3.2 | 6.4 | 0.00 | 0.00 | 0.00 | 92 | 1012.3 |
| 20260510112748 | 14 | 337 | 0.0 | 1.6 | 0.00 | 0.00 | 0.00 | 94 | 1012.0 |
| 20260510111248 | 12 | 149 | 0.0 | 1.6 | 0.00 | 0.00 | 0.00 | 96 | 1011.7 |
| 20260510105748 | 11 | 228 | 0.0 | 1.6 | 0.00 | 0.00 | 0.00 | 96 | 1011.5 |
| 20260510104450 | 11 | 253 | 0.0 | 1.6 | 0.00 | 0.00 | 0.00 | 96 | 1011.3 |
| 20260510104248 | 11 | 253 | 0.0 | 1.6 | 0.00 | 0.00 | 0.00 | 96 | 1011.3 |
| 20260510102747 | 10 | 159 | 0.0 | 0.0 | 0.00 | 0.00 | 0.00 | 96 | 1011.2 |
| 20260510101247 | 10 | 167 | 0.0 | 0.0 | 0.00 | 0.00 | 0.00 | 95 | 1011.2 |
| 20260510095747 | 10 | 189 | 0.0 | 0.0 | 0.00 | 0.00 | 0.00 | 95 | 1011.0 |
| 20260510094456 | 10 | 189 | 0.0 | 0.0 | 0.00 | 0.00 | 0.00 | 95 | 1011.0 |
| 20260510094247 | 10 | 155 | 0.0 | 0.0 | 0.00 | 0.00 | 0.00 | 95 | 1011.0 |
| 20260510092747 | 10 | 123 | 0.0 | 0.0 | 0.00 | 0.00 | 0.00 | 95 | 1010.9 |
| 20260510091247 | 10 | 123 | 0.0 | 0.0 | 0.00 | 0.00 | 0.00 | 95 | 1010.9 |
| 20260510085746 | 10 | 123 | 0.0 | 0.0 | 0.00 | 0.00 | 0.00 | 95 | 1010.7 |
| 20260510084515 | 10 | 123 | 0.0 | 0.0 | 0.00 | 0.00 | 0.00 | 95 | 1010.6 |
| 20260510084246 | 10 | 123 | 0.0 | 0.0 | 0.00 | 0.00 | 0.00 | 95 | 1010.5 |
| 20260510082746 | 11 | 123 | 0.0 | 0.0 | 0.00 | 0.00 | 0.00 | 94 | 1010.2 |
| 20260510081246 | 11 | 123 | 0.0 | 0.0 | 0.00 | 0.00 | 0.00 | 94 | 1010.0 |
| 20260510075746 | 11 | 123 | 0.0 | 0.0 | 0.00 | 0.00 | 0.00 | 94 | 1009.9 |
| 20260510074445 | 11 | 123 | 0.0 | 0.0 | 0.00 | 0.00 | 0.00 | 94 | 1009.8 |
| 20260510074245 | 11 | 123 | 0.0 | 0.0 | 0.00 | 0.00 | 0.00 | 94 | 1009.8 |
| 20260510072745 | 11 | 123 | 0.0 | 0.0 | 0.00 | 0.00 | 0.00 | 94 | 1009.7 |
| 20260510071245 | 12 | 123 | 0.0 | 0.0 | 0.00 | 0.00 | 0.00 | 93 | 1009.6 |
| 20260510065745 | 12 | 123 | 0.0 | 0.0 | 0.00 | 0.00 | 0.00 | 93 | 1009.6 |
| 20260510064446 | 12 | 123 | 0.0 | 0.0 | 0.00 | 0.00 | 0.00 | 93 | 1009.6 |
| 20260510064245 | 12 | 123 | 0.0 | 0.0 | 0.00 | 0.00 | 0.00 | 93 | 1009.5 |
| 20260510062744 | 12 | 123 | 0.0 | 0.0 | 0.00 | 0.00 | 0.00 | 93 | 1009.5 |
| 20260510061244 | 12 | 123 | 0.0 | 0.0 | 0.00 | 0.00 | 0.00 | 93 | 1009.4 |
| 20260510055744 | 13 | 123 | 0.0 | 0.0 | 0.00 | 0.00 | 0.00 | 92 | 1009.4 |
| 20260510054444 | 13 | 123 | 0.0 | 0.0 | 0.00 | 0.00 | 0.00 | 92 | 1009.4 |
| 20260510054244 | 13 | 123 | 0.0 | 0.0 | 0.00 | 0.00 | 0.00 | 91 | 1009.4 |
| 20260510052744 | 13 | 123 | 0.0 | 0.0 | 0.00 | 0.00 | 0.00 | 91 | 1009.6 |
| 20260510051243 | 13 | 123 | 0.0 | 0.0 | 0.00 | 0.00 | 0.00 | 90 | 1009.6 |
| 20260510045743 | 13 | 123 | 0.0 | 0.0 | 0.00 | 0.00 | 0.00 | 89 | 1009.6 |
| 20260510044513 | 13 | 123 | 0.0 | 0.0 | 0.00 | 0.00 | 0.00 | 88 | 1009.7 |
| 20260510044243 | 13 | 123 | 0.0 | 0.0 | 0.00 | 0.00 | 0.00 | 88 | 1009.6 |
| 20260510042743 | 14 | 123 | 0.0 | 0.0 | 0.00 | 0.00 | 0.00 | 87 | 1009.7 |
| 20260510041243 | 15 | 123 | 0.0 | 0.0 | 0.00 | 0.00 | 0.00 | 86 | 1009.5 |
| 20260510035742 | 15 | 123 | 0.0 | 0.0 | 0.00 | 0.00 | 0.00 | 85 | 1009.4 |
| 20260510034513 | 15 | 123 | 0.0 | 0.0 | 0.00 | 0.00 | 0.00 | 84 | 1009.5 |
| 20260510034242 | 15 | 123 | 0.0 | 0.0 | 0.00 | 0.00 | 0.00 | 84 | 1009.4 |
| 20260510032742 | 16 | 123 | 0.0 | 0.0 | 0.00 | 0.00 | 0.00 | 82 | 1009.3 |
| 20260510031242 | 16 | 123 | 0.0 | 0.0 | 0.00 | 0.00 | 0.00 | 82 | 1009.2 |
| 20260510025742 | 16 | 123 | 0.0 | 0.0 | 0.00 | 0.00 | 0.00 | 81 | 1009.1 |
| 20260510024514 | 16 | 123 | 0.0 | 0.0 | 0.00 | 0.00 | 0.00 | 79 | 1009.1 |
| 20260510024241 | 16 | 123 | 0.0 | 0.0 | 0.00 | 0.00 | 0.00 | 79 | 1009.0 |
| 20260510022741 | 17 | 123 | 0.0 | 6.4 | 0.00 | 0.00 | 0.00 | 76 | 1009.0 |
| 20260510021241 | 17 | 123 | 0.0 | 6.4 | 0.00 | 0.00 | 0.00 | 75 | 1008.9 |
| 20260510015741 | 18 | 123 | 0.0 | 9.7 | 0.00 | 0.00 | 0.00 | 73 | 1008.7 |
| 20260510014515 | 18 | 123 | 0.0 | 6.4 | 0.00 | 0.00 | 0.00 | 72 | 1008.6 |
| 20260510014241 | 18 | 123 | 0.0 | 9.7 | 0.00 | 0.00 | 0.00 | 72 | 1008.6 |
| 20260510012741 | 18 | 140 | 1.6 | 8.0 | 0.00 | 0.00 | 0.00 | 71 | 1008.5 |
| 20260510011240 | 18 | 135 | 0.0 | 8.0 | 0.00 | 0.00 | 0.00 | 70 | 1008.3 |
| 20260510005740 | 18 | 136 | 0.0 | 16.1 | 0.00 | 0.00 | 0.00 | 70 | 1008.3 |
| 20260510004448 | 19 | 138 | 1.6 | 9.7 | 0.00 | 0.00 | 0.00 | 70 | 1008.3 |
| 20260510004240 | 19 | 123 | 0.0 | 16.1 | 0.00 | 0.00 | 0.00 | 70 | 1008.2 |
| 20260510002740 | 19 | 129 | 4.8 | 11.3 | 0.00 | 0.00 | 0.00 | 70 | 1008.1 |
| 20260510001240 | 19 | 150 | 3.2 | 11.3 | 0.00 | 0.00 | 0.00 | 71 | 1008.0 |
| 20260509235739 | 20 | 142 | 1.6 | 11.3 | 0.00 | 0.00 | 0.00 | 70 | 1007.8 |
| 20260509234522 | 20 | 136 | 4.8 | 9.7 | 0.00 | 0.00 | 0.00 | 69 | 1007.9 |
| 20260509234239 | 20 | 121 | 1.6 | 11.3 | 0.00 | 0.00 | 0.00 | 69 | 1007.8 |
| 20260509232739 | 21 | 144 | 1.6 | 17.7 | 0.00 | 0.00 | 0.00 | 67 | 1007.7 |
| 20260509231239 | 21 | 149 | 0.0 | 17.7 | 0.00 | 0.00 | 0.00 | 66 | 1007.5 |
| 20260509225739 | 22 | 140 | 3.2 | 16.1 | 0.00 | 0.00 | 0.00 | 63 | 1007.4 |
| 20260509224459 | 22 | 144 | 3.2 | 8.0 | 0.00 | 0.00 | 0.00 | 60 | 1007.5 |
| 20260509224239 | 22 | 144 | 0.0 | 16.1 | 0.00 | 0.00 | 0.00 | 60 | 1007.4 |
| 20260509222738 | 22 | 146 | 8.0 | 14.5 | 0.00 | 0.00 | 0.00 | 60 | 1007.6 |
| 20260509221238 | 22 | 140 | 9.7 | 14.5 | 0.00 | 0.00 | 0.00 | 59 | 1007.5 |
| 20260509215738 | 22 | 175 | 0.0 | 16.1 | 0.00 | 0.00 | 0.00 | 60 | 1007.5 |
| 20260509214446 | 22 | 219 | 6.4 | 9.7 | 0.00 | 0.00 | 0.00 | 59 | 1007.6 |
| 20260509214238 | 22 | 213 | 0.0 | 16.1 | 0.00 | 0.00 | 0.00 | 60 | 1007.5 |
| 20260509212738 | 22 | 136 | 8.0 | 20.9 | 0.00 | 0.00 | 0.00 | 59 | 1007.5 |
| 20260509211238 | 22 | 182 | 0.0 | 20.9 | 0.00 | 0.00 | 0.00 | 59 | 1007.3 |
| 20260509205737 | 22 | 151 | 0.0 | 20.9 | 0.00 | 0.00 | 0.00 | 58 | 1007.2 |